| time (UTC) | temp F | wind direction | speed knots | gust knots | rain 1hr in | rain 24hr in | rain mn in | humidity % | barometer mb |
| 20260906213003 | 69 | 326 | 4.3 | 7.0 | 0.00 | 0.01 | 0.01 | 75 | 1019.5 |
| 20260906212002 | 68 | 11 | 3.5 | 6.1 | 0.00 | 0.01 | 0.01 | 75 | 1019.6 |
| 20260906211503 | 68 | 315 | 3.5 | 7.0 | 0.00 | 0.01 | 0.01 | 75 | 1019.6 |
| 20260906211003 | 68 | 25 | 4.3 | 6.1 | 0.00 | 0.01 | 0.01 | 74 | 1019.6 |
| 20260906210503 | 68 | 24 | 3.5 | 7.8 | 0.00 | 0.01 | 0.01 | 75 | 1019.6 |
| 20260906210003 | 68 | 347 | 4.3 | 10.4 | 0.00 | 0.01 | 0.01 | 74 | 1019.6 |
| 20260906205502 | 68 | 37 | 3.5 | 7.0 | 0.00 | 0.01 | 0.01 | 74 | 1019.7 |
| 20260906204503 | 68 | 342 | 4.3 | 6.1 | 0.00 | 0.01 | 0.01 | 75 | 1019.6 |
| 20260906204003 | 68 | 47 | 4.3 | 10.4 | 0.00 | 0.01 | 0.01 | 74 | 1019.6 |
| 20260906203504 | 68 | 323 | 4.3 | 7.8 | 0.00 | 0.01 | 0.01 | 75 | 1019.5 |
| 20260906202503 | 68 | 44 | 2.6 | 8.7 | 0.00 | 0.01 | 0.01 | 76 | 1019.6 |
| 20260906202003 | 67 | 0 | 5.2 | 10.4 | 0.00 | 0.01 | 0.01 | 77 | 1019.5 |
| 20260906201503 | 68 | 330 | 3.5 | 7.0 | 0.00 | 0.01 | 0.01 | 76 | 1019.6 |
| 20260906201003 | 68 | 18 | 3.5 | 8.7 | 0.00 | 0.01 | 0.01 | 76 | 1019.5 |
| 20260906200503 | 68 | 346 | 3.5 | 7.0 | 0.00 | 0.01 | 0.01 | 77 | 1019.6 |
| 20260906195503 | 68 | 15 | 5.2 | 7.8 | 0.00 | 0.01 | 0.01 | 76 | 1019.6 |
| 20260906195002 | 68 | 14 | 5.2 | 10.4 | 0.00 | 0.01 | 0.01 | 76 | 1019.5 |
| 20260906192003 | 67 | 55 | 4.3 | 7.8 | 0.00 | 0.01 | 0.01 | 78 | 1019.5 |
| 20260906191503 | 67 | 69 | 2.6 | 7.0 | 0.00 | 0.01 | 0.01 | 77 | 1019.5 |
| 20260906191003 | 68 | 346 | 5.2 | 10.4 | 0.00 | 0.01 | 0.01 | 77 | 1019.5 |
| 20260906190504 | 68 | 43 | 4.3 | 7.8 | 0.00 | 0.01 | 0.01 | 77 | 1019.4 |
| 20260906185503 | 67 | 37 | 6.1 | 10.4 | 0.00 | 0.01 | 0.01 | 77 | 1019.6 |
| 20260906185004 | 67 | 41 | 3.5 | 6.1 | 0.00 | 0.01 | 0.01 | 81 | 1019.5 |
| 20260906183504 | 67 | 11 | 5.2 | 7.8 | 0.00 | 0.01 | 0.01 | 76 | 1019.5 |
| 20260906183003 | 67 | 0 | 5.2 | 10.4 | 0.00 | 0.01 | 0.01 | 77 | 1019.5 |
| 20260906182503 | 67 | 71 | 4.3 | 10.4 | 0.00 | 0.01 | 0.01 | 80 | 1019.5 |
| 20260906181503 | 67 | 10 | 5.2 | 8.7 | 0.00 | 0.01 | 0.01 | 79 | 1019.5 |
| 20260906180503 | 67 | 0 | 3.5 | 7.8 | 0.00 | 0.01 | 0.01 | 81 | 1019.6 |
| 20260906180004 | 67 | 26 | 3.5 | 13.9 | 0.00 | 0.01 | 0.01 | 79 | 1019.6 |
| 20260906175503 | 67 | 56 | 4.3 | 10.4 | 0.00 | 0.01 | 0.01 | 79 | 1019.6 |
| 20260906174504 | 66 | 43 | 5.2 | 10.4 | 0.00 | 0.01 | 0.01 | 80 | 1019.7 |
| 20260906174003 | 67 | 16 | 5.2 | 8.7 | 0.00 | 0.01 | 0.01 | 79 | 1019.6 |
| 20260906173503 | 67 | 78 | 6.1 | 11.3 | 0.00 | 0.01 | 0.01 | 80 | 1019.6 |
| 20260906173003 | 67 | 13 | 4.3 | 10.4 | 0.00 | 0.01 | 0.01 | 79 | 1019.7 |
| 20260906172503 | 67 | 75 | 4.3 | 10.4 | 0.00 | 0.01 | 0.01 | 80 | 1019.7 |
| 20260906172003 | 67 | 15 | 3.5 | 10.4 | 0.00 | 0.01 | 0.01 | 82 | 1019.8 |
| 20260906171503 | 67 | 70 | 6.1 | 10.4 | 0.00 | 0.01 | 0.01 | 79 | 1019.7 |
| 20260906171003 | 67 | 82 | 3.5 | 10.4 | 0.00 | 0.01 | 0.01 | 80 | 1019.7 |
| 20260906170503 | 67 | 33 | 4.3 | 8.7 | 0.00 | 0.01 | 0.01 | 80 | 1019.6 |
| 20260906170003 | 67 | 21 | 3.5 | 7.8 | 0.00 | 0.01 | 0.01 | 82 | 1019.6 |
| 20260906165003 | 66 | 78 | 4.3 | 10.4 | 0.00 | 0.01 | 0.01 | 81 | 1019.5 |
| 20260906164503 | 67 | 42 | 5.2 | 11.3 | 0.00 | 0.01 | 0.01 | 79 | 1019.5 |
| 20260906164004 | 67 | 322 | 4.3 | 8.7 | 0.00 | 0.01 | 0.01 | 81 | 1019.5 |
| 20260906163504 | 67 | 0 | 5.2 | 12.2 | 0.00 | 0.01 | 0.01 | 81 | 1019.5 |
| 20260906163003 | 67 | 27 | 4.3 | 10.4 | 0.00 | 0.01 | 0.01 | 81 | 1019.5 |
| 20260906162503 | 68 | 12 | 5.2 | 7.8 | 0.00 | 0.01 | 0.01 | 82 | 1019.5 |
| 20260906162004 | 67 | 64 | 6.1 | 10.4 | 0.00 | 0.01 | 0.01 | 81 | 1019.5 |
| 20260906161503 | 67 | 63 | 5.2 | 10.4 | 0.00 | 0.01 | 0.01 | 82 | 1019.6 |
| 20260906161004 | 67 | 347 | 6.1 | 13.0 | 0.00 | 0.01 | 0.01 | 80 | 1019.6 |
| 20260906160504 | 67 | 57 | 4.3 | 10.4 | 0.00 | 0.01 | 0.01 | 83 | 1019.6 |
| 20260906155503 | 66 | 68 | 5.2 | 10.4 | 0.00 | 0.01 | 0.01 | 82 | 1019.5 |
| 20260906154503 | 67 | 353 | 4.3 | 10.4 | 0.00 | 0.01 | 0.01 | 83 | 1019.5 |
| 20260906154003 | 67 | 76 | 4.3 | 10.4 | 0.00 | 0.01 | 0.01 | 84 | 1019.5 |
| 20260906153504 | 66 | 54 | 6.1 | 10.4 | 0.00 | 0.01 | 0.01 | 82 | 1019.4 |
| 20260906153004 | 66 | 49 | 7.0 | 11.3 | 0.00 | 0.01 | 0.01 | 84 | 1019.5 |
| 20260906152503 | 66 | 13 | 5.2 | 10.4 | 0.00 | 0.01 | 0.01 | 82 | 1019.5 |
| 20260906152004 | 67 | 76 | 5.2 | 11.3 | 0.00 | 0.01 | 0.01 | 83 | 1019.5 |
| 20260906151504 | 67 | 10 | 6.1 | 11.3 | 0.00 | 0.01 | 0.01 | 83 | 1019.5 |
| 20260906150004 | 67 | 57 | 5.2 | 11.3 | 0.00 | 0.01 | 0.01 | 84 | 1019.5 |
| 20260906145503 | 66 | 24 | 6.1 | 13.0 | 0.00 | 0.01 | 0.01 | 85 | 1019.4 |
| 20260906144504 | 66 | 68 | 4.3 | 10.4 | 0.01 | 0.01 | 0.01 | 83 | 1019.4 |
| 20260906143504 | 66 | 74 | 4.3 | 10.4 | 0.01 | 0.01 | 0.01 | 83 | 1019.5 |
| 20260906143003 | 66 | 65 | 4.3 | 11.3 | 0.01 | 0.01 | 0.01 | 84 | 1019.5 |
| 20260906142504 | 66 | 67 | 4.3 | 7.8 | 0.01 | 0.01 | 0.01 | 83 | 1019.3 |
| 20260906142003 | 66 | 62 | 5.2 | 10.4 | 0.01 | 0.01 | 0.01 | 84 | 1019.2 |
| 20260906141503 | 66 | 59 | 6.1 | 10.4 | 0.01 | 0.01 | 0.01 | 84 | 1019.0 |
| 20260906141003 | 67 | 78 | 5.2 | 10.4 | 0.01 | 0.01 | 0.01 | 86 | 1019.0 |
| 20260906140504 | 66 | 68 | 4.3 | 7.8 | 0.01 | 0.01 | 0.01 | 87 | 1018.9 |
| 20260906140004 | 66 | 2 | 3.5 | 7.0 | 0.01 | 0.01 | 0.01 | 88 | 1018.8 |
| 20260906135503 | 66 | 4 | 7.8 | 13.0 | 0.01 | 0.01 | 0.01 | 87 | 1018.9 |
| 20260906135004 | 66 | 47 | 4.3 | 8.7 | 0.00 | 0.00 | 0.00 | 88 | 1018.8 |
| 20260906134504 | 66 | 28 | 5.2 | 10.4 | 0.00 | 0.00 | 0.00 | 87 | 1018.8 |
| 20260906134004 | 66 | 31 | 6.1 | 11.3 | 0.00 | 0.00 | 0.00 | 87 | 1018.8 |
| 20260906133504 | 66 | 6 | 2.6 | 7.0 | 0.00 | 0.00 | 0.00 | 87 | 1018.8 |
| 20260906133003 | 67 | 32 | 4.3 | 7.8 | 0.00 | 0.00 | 0.00 | 87 | 1018.8 |
| 20260906132504 | 67 | 11 | 4.3 | 10.4 | 0.00 | 0.00 | 0.00 | 87 | 1018.7 |
| 20260906132004 | 67 | 34 | 4.3 | 8.7 | 0.00 | 0.00 | 0.00 | 87 | 1018.7 |
| 20260906131503 | 66 | 17 | 4.3 | 6.1 | 0.00 | 0.00 | 0.00 | 87 | 1018.6 |
| 20260906131003 | 66 | 44 | 4.3 | 6.1 | 0.00 | 0.00 | 0.00 | 87 | 1018.6 |
| 20260906130504 | 66 | 30 | 4.3 | 10.4 | 0.00 | 0.00 | 0.00 | 87 | 1018.7 |
| 20260906130003 | 66 | 19 | 2.6 | 7.8 | 0.00 | 0.00 | 0.00 | 89 | 1018.7 |
| 20260906125504 | 66 | 39 | 3.5 | 6.1 | 0.00 | 0.00 | 0.00 | 91 | 1018.6 |
| 20260906125004 | 65 | 33 | 2.6 | 7.0 | 0.00 | 0.00 | 0.00 | 92 | 1018.6 |
| 20260906124004 | 64 | 83 | 2.6 | 8.7 | 0.00 | 0.00 | 0.00 | 93 | 1018.5 |
| 20260906123502 | 64 | 66 | 4.3 | 7.8 | 0.00 | 0.00 | 0.00 | 93 | 1018.5 |
| 20260906122502 | 65 | 26 | 2.6 | 5.2 | 0.00 | 0.00 | 0.00 | 94 | 1018.4 |
| 20260906122002 | 64 | 53 | 2.6 | 8.7 | 0.00 | 0.00 | 0.00 | 95 | 1018.3 |
| 20260906121502 | 64 | 61 | 1.7 | 2.6 | 0.00 | 0.00 | 0.00 | 95 | 1018.2 |
| 20260906121002 | 64 | 49 | 3.5 | 6.1 | 0.00 | 0.00 | 0.00 | 95 | 1018.2 |
| 20260906120502 | 64 | 47 | 5.2 | 8.7 | 0.00 | 0.00 | 0.00 | 95 | 1018.1 |
| 20260906115002 | 64 | 56 | 4.3 | 7.8 | 0.00 | 0.00 | 0.00 | 97 | 1018.0 |
| 20260906114502 | 64 | 74 | 2.6 | 7.0 | 0.00 | 0.00 | 0.00 | 97 | 1017.9 |
| 20260906114002 | 64 | 5 | 1.7 | 7.0 | 0.00 | 0.00 | 0.00 | 98 | 1017.9 |
| 20260906113503 | 64 | 115 | 0.9 | 2.6 | 0.00 | 0.00 | 0.00 | 99 | 1017.8 |
| 20260906113002 | 64 | 69 | 0.9 | 2.6 | 0.00 | 0.00 | 0.00 | 99 | 1017.7 |
| 20260906112502 | 64 | 52 | 1.7 | 5.2 | 0.00 | 0.00 | 0.00 | 99 | 1017.7 |
| 20260906112002 | 63 | 75 | 4.3 | 7.8 | 0.00 | 0.00 | 0.00 | 100 | 1017.6 |
| 20260906111502 | 63 | 53 | 1.7 | 4.3 | 0.00 | 0.00 | 0.00 | 100 | 1017.6 |
| 20260906111001 | 66 | 0 | 0.0 | 0.0 | 0.00 | 0.00 | 0.00 | 92 | 1017.6 |
| 20260906110502 | 66 | 0 | 0.0 | 0.0 | 0.00 | 0.00 | 0.00 | 92 | 1017.6 |
| 20260906110002 | 66 | 0 | 0.0 | 0.0 | 0.00 | 0.00 | 0.00 | 92 | 1017.5 |
| 20260906105502 | 66 | 0 | 0.0 | 0.0 | 0.00 | 0.00 | 0.00 | 92 | 1017.4 |
| 20260906105001 | 66 | 0 | 0.0 | 0.0 | 0.00 | 0.00 | 0.00 | 92 | 1017.4 |
| 20260906104502 | 66 | 0 | 0.0 | 0.0 | 0.00 | 0.00 | 0.00 | 92 | 1017.4 |
| 20260906104003 | 66 | 0 | 0.0 | 0.0 | 0.00 | 0.00 | 0.00 | 92 | 1017.3 |
| 20260906103502 | 66 | 0 | 0.0 | 0.0 | 0.00 | 0.00 | 0.00 | 92 | 1017.3 |
| 20260906102502 | 66 | 0 | 0.0 | 0.0 | 0.00 | 0.00 | 0.00 | 92 | 1017.1 |
| 20260906101502 | 66 | 0 | 0.0 | 0.0 | 0.00 | 0.00 | 0.00 | 92 | 1017.1 |
| 20260906101002 | 66 | 0 | 0.0 | 0.0 | 0.00 | 0.00 | 0.00 | 92 | 1016.9 |
| 20260906100502 | 66 | 0 | 0.0 | 0.0 | 0.00 | 0.00 | 0.00 | 92 | 1016.8 |
| 20260906100002 | 66 | 0 | 0.0 | 0.0 | 0.00 | 0.00 | 0.00 | 92 | 1016.8 |
| 20260906095502 | 66 | 0 | 0.0 | 0.0 | 0.00 | 0.00 | 0.00 | 92 | 1016.8 |
| 20260906095002 | 66 | 0 | 0.0 | 0.0 | 0.00 | 0.00 | 0.00 | 92 | 1016.7 |
| 20260906094502 | 66 | 0 | 0.0 | 0.0 | 0.00 | 0.00 | 0.00 | 92 | 1016.6 |
| 20260906094002 | 66 | 0 | 0.0 | 0.0 | 0.00 | 0.00 | 0.00 | 92 | 1016.6 |
| 20260906093502 | 66 | 0 | 0.0 | 0.0 | 0.00 | 0.00 | 0.00 | 92 | 1016.6 |
| 20260906092502 | 66 | 0 | 0.0 | 0.0 | 0.00 | 0.00 | 0.00 | 92 | 1016.4 |
| 20260906092002 | 66 | 0 | 0.0 | 0.0 | 0.00 | 0.00 | 0.00 | 92 | 1016.3 |
| 20260906091002 | 66 | 0 | 0.0 | 0.0 | 0.00 | 0.00 | 0.00 | 92 | 1016.2 |
| 20260906090502 | 66 | 0 | 0.0 | 0.0 | 0.00 | 0.00 | 0.00 | 92 | 1016.0 |
| 20260906090002 | 66 | 0 | 0.0 | 0.0 | 0.00 | 0.00 | 0.00 | 92 | 1016.0 |
| 20260906085501 | 66 | 0 | 0.0 | 0.0 | 0.00 | 0.00 | 0.00 | 92 | 1016.0 |
| 20260906084502 | 66 | 0 | 0.0 | 0.0 | 0.00 | 0.00 | 0.00 | 92 | 1015.9 |
| 20260906084003 | 66 | 0 | 0.0 | 0.0 | 0.00 | 0.00 | 0.00 | 92 | 1015.9 |
| 20260906083502 | 66 | 0 | 0.0 | 0.0 | 0.00 | 0.00 | 0.00 | 92 | 1015.9 |
| 20260906083002 | 66 | 0 | 0.0 | 0.0 | 0.00 | 0.00 | 0.00 | 92 | 1015.9 |
| 20260906082003 | 66 | 0 | 0.0 | 0.0 | 0.00 | 0.00 | 0.00 | 92 | 1015.8 |
| 20260906081002 | 66 | 0 | 0.0 | 0.0 | 0.00 | 0.00 | 0.00 | 92 | 1015.8 |
| 20260906080502 | 66 | 0 | 0.0 | 0.0 | 0.00 | 0.00 | 0.00 | 92 | 1015.8 |
| 20260906080002 | 66 | 0 | 0.0 | 0.0 | 0.00 | 0.00 | 0.00 | 92 | 1015.8 |
| 20260906075502 | 66 | 0 | 0.0 | 0.0 | 0.00 | 0.00 | 0.00 | 92 | 1015.7 |
| 20260906075002 | 66 | 0 | 0.0 | 0.0 | 0.00 | 0.00 | 0.00 | 92 | 1015.7 |
| 20260906074503 | 66 | 0 | 0.0 | 0.0 | 0.00 | 0.00 | 0.00 | 92 | 1015.6 |
| 20260906074002 | 66 | 0 | 0.0 | 0.0 | 0.00 | 0.00 | 0.00 | 92 | 1015.6 |
| 20260906073502 | 66 | 0 | 0.0 | 0.0 | 0.00 | 0.00 | 0.00 | 92 | 1015.6 |
| 20260906072502 | 66 | 0 | 0.0 | 0.0 | 0.00 | 0.00 | 0.00 | 92 | 1015.6 |
| 20260906072002 | 66 | 0 | 0.0 | 0.0 | 0.00 | 0.00 | 0.00 | 92 | 1015.7 |
| 20260906071502 | 66 | 0 | 0.0 | 0.0 | 0.00 | 0.00 | 0.00 | 92 | 1015.6 |
| 20260906071002 | 66 | 0 | 0.0 | 0.0 | 0.00 | 0.00 | 0.00 | 92 | 1015.7 |
| 20260906070502 | 66 | 0 | 0.0 | 0.0 | 0.00 | 0.00 | 0.00 | 92 | 1015.6 |
| 20260906065003 | 66 | 0 | 0.0 | 0.0 | 0.00 | 0.00 | 0.00 | 92 | 1015.6 |
| 20260906064502 | 66 | 0 | 0.0 | 0.0 | 0.00 | 0.00 | 0.00 | 92 | 1015.7 |
| 20260906064003 | 66 | 0 | 0.0 | 0.0 | 0.00 | 0.00 | 0.00 | 92 | 1015.6 |
| 20260906063503 | 66 | 0 | 0.0 | 0.0 | 0.00 | 0.00 | 0.00 | 92 | 1015.7 |
| 20260906063002 | 66 | 0 | 0.0 | 0.0 | 0.00 | 0.00 | 0.00 | 92 | 1015.7 |
| 20260906062503 | 66 | 0 | 0.0 | 0.0 | 0.00 | 0.00 | 0.00 | 92 | 1015.6 |
| 20260906062002 | 66 | 0 | 0.0 | 0.0 | 0.00 | 0.00 | 0.00 | 92 | 1015.7 |
| 20260906061002 | 66 | 0 | 0.0 | 0.0 | 0.00 | 0.00 | 0.00 | 92 | 1015.6 |
| 20260906060002 | 66 | 0 | 0.0 | 0.0 | 0.00 | 0.00 | 0.00 | 92 | 1015.7 |
| 20260906054502 | 66 | 0 | 0.0 | 0.0 | 0.00 | 0.00 | 0.00 | 92 | 1015.7 |
| 20260906054002 | 66 | 0 | 0.0 | 0.0 | 0.00 | 0.00 | 0.00 | 92 | 1015.7 |
| 20260906053002 | 66 | 0 | 0.0 | 0.0 | 0.00 | 0.00 | 0.00 | 92 | 1015.7 |
| 20260906052503 | 66 | 0 | 0.0 | 0.0 | 0.00 | 0.00 | 0.00 | 92 | 1015.7 |
| 20260906052002 | 66 | 0 | 0.0 | 0.0 | 0.00 | 0.00 | 0.00 | 92 | 1015.8 |
| 20260906051503 | 66 | 0 | 0.0 | 0.0 | 0.00 | 0.00 | 0.00 | 92 | 1015.8 |
| 20260906051002 | 66 | 0 | 0.0 | 0.0 | 0.00 | 0.00 | 0.00 | 92 | 1015.8 |
| 20260906050502 | 66 | 0 | 0.0 | 0.0 | 0.00 | 0.00 | 0.00 | 92 | 1015.7 |
| 20260906045503 | 66 | 0 | 0.0 | 0.0 | 0.00 | 0.00 | 0.00 | 92 | 1015.6 |
| 20260906045002 | 66 | 0 | 0.0 | 0.0 | 0.00 | 0.00 | 0.00 | 92 | 1015.6 |
| 20260906044502 | 66 | 0 | 0.0 | 0.0 | 0.00 | 0.00 | 0.00 | 92 | 1015.6 |
| 20260906044003 | 66 | 0 | 0.0 | 0.0 | 0.00 | 0.00 | 0.00 | 92 | 1015.6 |
| 20260906043502 | 66 | 0 | 0.0 | 0.0 | 0.00 | 0.00 | 0.00 | 92 | 1015.6 |
| 20260906043002 | 66 | 0 | 0.0 | 0.0 | 0.00 | 0.00 | 0.00 | 92 | 1015.5 |
| 20260906042503 | 66 | 0 | 0.0 | 0.0 | 0.00 | 0.00 | 0.00 | 92 | 1015.6 |
| 20260906041503 | 66 | 0 | 0.0 | 0.0 | 0.00 | 0.00 | 0.00 | 92 | 1015.6 |
| 20260906041003 | 66 | 0 | 0.0 | 0.0 | 0.00 | 0.00 | 0.00 | 92 | 1015.5 |
| 20260906040502 | 66 | 0 | 0.0 | 0.0 | 0.00 | 0.00 | 0.00 | 92 | 1015.5 |
| 20260906035503 | 66 | 0 | 0.0 | 0.0 | 0.00 | 0.00 | 0.00 | 92 | 1015.5 |
| 20260906035002 | 66 | 0 | 0.0 | 0.0 | 0.00 | 0.00 | 0.00 | 92 | 1015.5 |
| 20260906034502 | 66 | 0 | 0.0 | 0.0 | 0.00 | 0.00 | 0.00 | 92 | 1015.5 |
| 20260906034003 | 66 | 0 | 0.0 | 0.0 | 0.00 | 0.00 | 0.00 | 92 | 1015.5 |
| 20260906033502 | 66 | 0 | 0.0 | 0.0 | 0.00 | 0.00 | 0.00 | 92 | 1015.5 |
| 20260906033002 | 66 | 0 | 0.0 | 0.0 | 0.00 | 0.00 | 0.00 | 92 | 1015.4 |
| 20260906032503 | 66 | 0 | 0.0 | 0.0 | 0.00 | 0.00 | 0.00 | 92 | 1015.5 |
| 20260906032002 | 66 | 0 | 0.0 | 0.0 | 0.00 | 0.00 | 0.00 | 92 | 1015.5 |
| 20260906031503 | 66 | 0 | 0.0 | 0.0 | 0.00 | 0.00 | 0.00 | 92 | 1015.5 |
| 20260906030002 | 66 | 0 | 0.0 | 0.0 | 0.00 | 0.00 | 0.00 | 92 | 1015.4 |
| 20260906025502 | 66 | 0 | 0.0 | 0.0 | 0.00 | 0.00 | 0.00 | 92 | 1015.4 |
| 20260906025002 | 66 | 0 | 0.0 | 0.0 | 0.00 | 0.00 | 0.00 | 92 | 1015.3 |
| 20260906024002 | 66 | 0 | 0.0 | 0.0 | 0.00 | 0.00 | 0.00 | 92 | 1015.3 |
| 20260906023503 | 66 | 0 | 0.0 | 0.0 | 0.00 | 0.00 | 0.00 | 92 | 1015.3 |
| 20260906023002 | 66 | 0 | 0.0 | 0.0 | 0.00 | 0.00 | 0.00 | 92 | 1015.3 |
| 20260906022502 | 66 | 0 | 0.0 | 0.0 | 0.00 | 0.00 | 0.00 | 92 | 1015.2 |
| 20260906021502 | 66 | 0 | 0.0 | 0.0 | 0.00 | 0.00 | 0.00 | 92 | 1015.2 |
| 20260906021003 | 66 | 0 | 0.0 | 0.0 | 0.00 | 0.00 | 0.00 | 92 | 1015.1 |
| 20260906020002 | 66 | 0 | 0.0 | 0.0 | 0.00 | 0.00 | 0.00 | 92 | 1015.3 |
| 20260906015503 | 66 | 0 | 0.0 | 0.0 | 0.00 | 0.00 | 0.00 | 92 | 1015.2 |
| 20260906015003 | 66 | 0 | 0.0 | 0.0 | 0.00 | 0.00 | 0.00 | 92 | 1015.2 |
| 20260906014003 | 66 | 0 | 0.0 | 0.0 | 0.00 | 0.00 | 0.00 | 92 | 1015.1 |
| 20260906013003 | 66 | 0 | 0.0 | 0.0 | 0.00 | 0.00 | 0.00 | 92 | 1015.0 |
| 20260906012502 | 66 | 0 | 0.0 | 0.0 | 0.00 | 0.00 | 0.00 | 92 | 1015.0 |
| 20260906012003 | 66 | 0 | 0.0 | 0.0 | 0.00 | 0.00 | 0.00 | 92 | 1015.0 |
| 20260906011503 | 66 | 0 | 0.0 | 0.0 | 0.00 | 0.00 | 0.00 | 92 | 1015.0 |
| 20260906011003 | 66 | 0 | 0.0 | 0.0 | 0.00 | 0.00 | 0.00 | 92 | 1015.0 |
| 20260906010503 | 66 | 0 | 0.0 | 0.0 | 0.00 | 0.00 | 0.00 | 92 | 1015.1 |
| 20260906010003 | 66 | 0 | 0.0 | 0.0 | 0.00 | 0.00 | 0.00 | 92 | 1015.1 |
| 20260906005503 | 66 | 0 | 0.0 | 0.0 | 0.00 | 0.00 | 0.00 | 92 | 1014.9 |
| 20260906005003 | 66 | 0 | 0.0 | 0.0 | 0.00 | 0.00 | 0.00 | 92 | 1014.9 |
| 20260906004002 | 66 | 0 | 0.0 | 0.0 | 0.00 | 0.00 | 0.00 | 92 | 1014.7 |
| 20260906003503 | 66 | 0 | 0.0 | 0.0 | 0.00 | 0.00 | 0.00 | 92 | 1014.7 |
| 20260906003002 | 66 | 13 | 0.0 | 0.0 | 0.00 | 0.00 | 0.00 | 92 | 1014.6 |
| 20260906002503 | 66 | 13 | 0.0 | 0.0 | 0.00 | 0.00 | 0.00 | 92 | 1014.8 |
| 20260906002002 | 66 | 12 | 0.0 | 0.0 | 0.00 | 0.00 | 0.00 | 91 | 1014.8 |
| 20260906001503 | 67 | 12 | 0.0 | 0.9 | 0.00 | 0.00 | 0.00 | 91 | 1014.9 |
| 20260906001003 | 67 | 13 | 0.0 | 0.0 | 0.00 | 0.00 | 0.00 | 91 | 1015.0 |
| 20260906000003 | 67 | 316 | 0.0 | 0.9 | 0.00 | 0.00 | 0.00 | 90 | 1014.9 |
| 20260905235503 | 67 | 316 | 0.0 | 0.0 | 0.00 | 0.00 | 0.00 | 89 | 1015.0 |
| 20260905235003 | 67 | 316 | 0.0 | 0.9 | 0.00 | 0.00 | 0.00 | 89 | 1014.9 |
| 20260905234003 | 68 | 315 | 0.0 | 1.7 | 0.00 | 0.00 | 0.00 | 89 | 1014.8 |
| 20260905233503 | 68 | 319 | 0.0 | 0.9 | 0.00 | 0.00 | 0.00 | 88 | 1014.8 |
| 20260905233003 | 68 | 330 | 0.9 | 1.7 | 0.00 | 0.00 | 0.00 | 88 | 1015.0 |
| 20260905232503 | 68 | 332 | 0.0 | 1.7 | 0.00 | 0.00 | 0.00 | 87 | 1014.9 |
| 20260905232003 | 68 | 320 | 0.9 | 1.7 | 0.00 | 0.00 | 0.00 | 87 | 1014.8 |
| 20260905231503 | 68 | 335 | 0.0 | 1.7 | 0.00 | 0.00 | 0.00 | 86 | 1014.9 |
| 20260905230503 | 69 | 352 | 0.9 | 2.6 | 0.00 | 0.00 | 0.00 | 85 | 1014.9 |
| 20260905230003 | 69 | 326 | 1.7 | 2.6 | 0.00 | 0.00 | 0.00 | 85 | 1014.8 |
| 20260905225503 | 69 | 296 | 1.7 | 2.6 | 0.00 | 0.00 | 0.00 | 84 | 1014.8 |
| 20260905225003 | 69 | 354 | 0.9 | 2.6 | 0.00 | 0.00 | 0.00 | 84 | 1014.9 |
| 20260905224503 | 69 | 300 | 1.7 | 5.2 | 0.00 | 0.00 | 0.00 | 83 | 1015.0 |
| 20260905224003 | 70 | 328 | 1.7 | 5.2 | 0.00 | 0.00 | 0.00 | 82 | 1015.0 |
| 20260905223003 | 70 | 17 | 2.6 | 4.3 | 0.00 | 0.00 | 0.00 | 82 | 1014.9 |
| 20260905222502 | 70 | 322 | 1.7 | 5.2 | 0.00 | 0.00 | 0.00 | 82 | 1014.9 |
| 20260905222003 | 71 | 5 | 3.5 | 5.2 | 0.00 | 0.00 | 0.00 | 81 | 1014.9 |
| 20260905221503 | 71 | 325 | 2.6 | 5.2 | 0.00 | 0.00 | 0.00 | 79 | 1014.8 |
| 20260905221003 | 71 | 303 | 1.7 | 2.6 | 0.00 | 0.00 | 0.00 | 81 | 1014.8 |
| 20260905220502 | 71 | 13 | 2.6 | 5.2 | 0.00 | 0.00 | 0.00 | 81 | 1014.7 |
| 20260905220003 | 71 | 323 | 2.6 | 2.6 | 0.00 | 0.00 | 0.00 | 80 | 1014.7 |
| 20260905215503 | 71 | 12 | 4.3 | 7.0 | 0.00 | 0.00 | 0.00 | 80 | 1014.7 |
| 20260905215003 | 71 | 308 | 1.7 | 4.3 | 0.00 | 0.00 | 0.00 | 79 | 1014.6 |
| 20260905214503 | 71 | 316 | 3.5 | 5.2 | 0.00 | 0.00 | 0.00 | 79 | 1014.7 |
| 20260905214002 | 72 | 341 | 3.5 | 5.2 | 0.00 | 0.00 | 0.00 | 79 | 1014.7 |
| 20260905213503 | 71 | 311 | 1.7 | 5.2 | 0.00 | 0.00 | 0.00 | 81 | 1014.6 |